sat.trackr.live / text

‹ back to catalog

SHIJIAN-30C (SJ-30C)

NORAD 66547 · 2025-266C

PAYLOAD ACTIVE UNKNOWN

§ Identity

Operator
Country
PRC
Launch date
2025-11-19
Launch site
JSC
Launch vehicle
Mass (kg)
RCS (m²)

External: N2YO · Heavens-Above · Gunter

§ Orbital elements

Epoch: 2026-05-24T21:29:50.445600Z

Period
95.02 min
Inclination
51.7980°
Eccentricity
0.0008972
Mean motion
15.15464114 rev/d
Perigee alt
513.4 km
Apogee alt
525.8 km
Semi-major
6,897.7 km
B*
3.7849e-4
RAAN
288.5033°
Arg perigee
176.6396°
Mean anomaly
183.4642°
Rev number
2,832

§ Raw data

SHIJIAN-30C (SJ-30C)1 66547U 25266C   26144.89572275  .00006953  00000+0  37849-3 0  99972 66547  51.7980 288.5033 0008972 176.6396 183.4642 15.15464114 28328

JSON: /api/v1/satellites/66547 · /tle

For live sub-satellite position, see the globe view (requires WebGL).

§ Visibility from observer

Set your observer location to see the next 7 days of passes ≥ 10°. The values pass through the URL so the page stays shareable.

No JS? Fill the form by hand. The geolocation button needs JavaScript.